,,,PA_Meas_PMT16A,,PR_Meas_QMR101_102,,RH_Meas_QMH101,,SR_Meas_QMS101,,TA_Meas_QMH101,,GenWind,,GenWind,
date,time,status,PA,status,PR,status,RH,status,SR,status,TA,status,DirAvg,status,SpdAvg,
2010-10-20, 00:00:04,VALID,1005.33,VALID,0,VALID,89.9216,VALID,110.116,VALID,26.7804,VALID,88,VALID,0.340625,
2010-10-20, 00:01:04,VALID,1005.34,VALID,0,VALID,89.0595,VALID,111.424,VALID,26.7998,VALID,61,VALID,0.435937,
2010-10-20, 00:02:04,VALID,1005.31,VALID,0,VALID,88.2204,VALID,112.731,VALID,26.7978,VALID,164,VALID,0.825781,
2010-10-20, 00:03:04,VALID,1005.3,VALID,0,VALID,89.0367,VALID,113.837,VALID,26.8388,VALID,109,VALID,1.11133,
2010-10-20, 00:04:04,VALID,1005.32,VALID,0,VALID,89.6165,VALID,115.145,VALID,26.8778,VALID,133,VALID,1.08164,
2010-10-20, 00:05:04,VALID,1005.3,VALID,0,VALID,88.8383,VALID,116.351,VALID,26.8973,VALID,91,VALID,0.895312,
2010-10-20, 00:06:04,VALID,1005.32,VALID,0,VALID,88.701,VALID,117.558,VALID,26.8973,VALID,115,VALID,0.876562,
2010-10-20, 00:07:04,VALID,1005.32,VALID,0,VALID,88.6628,VALID,118.664,VALID,26.9383,VALID,117,VALID,1.57695,
2010-10-20, 00:08:04,VALID,1005.33,VALID,0,VALID,88.1517,VALID,119.77,VALID,26.8973,VALID,118,VALID,0.614453,
2010-10-20, 00:09:04,VALID,1005.34,VALID,0,VALID,88.1212,VALID,120.977,VALID,26.9167,VALID,85,VALID,0.866797,
2010-10-20, 00:10:04,VALID,1005.39,VALID,0,VALID,87.9076,VALID,122.184,VALID,26.9383,VALID,101,VALID,0.660156,
2010-10-20, 00:11:04,VALID,1005.4,VALID,0,VALID,88.3882,VALID,123.491,VALID,26.9362,VALID,101,VALID,0.270312,
2010-10-20, 00:12:04,VALID,1005.42,VALID,0,VALID,88.9375,VALID,125.1,VALID,26.9732,VALID,101,VALID,0.241797,
2010-10-20, 00:13:04,VALID,1005.41,VALID,0,VALID,87.4041,VALID,126.81,VALID,26.9947,VALID,49,VALID,0.769141,
2010-10-20, 00:14:04,VALID,1005.43,VALID,0,VALID,87.9534,VALID,128.519,VALID,27.0336,VALID,45,VALID,0.336328,
2010-10-20, 00:15:04,VALID,1005.42,VALID,0,VALID,88.3653,VALID,130.33,VALID,27.0726,VALID,46,VALID,0.257813,
2010-10-20, 00:16:04,VALID,1005.43,VALID,0,VALID,87.9457,VALID,132.039,VALID,27.0706,VALID,127,VALID,0.656641,
2010-10-20, 00:17:04,VALID,1005.42,VALID,0,VALID,87.9305,VALID,133.749,VALID,27.0726,VALID,111,VALID,1.03867,
2010-10-20, 00:18:04,VALID,1005.4,VALID,0,VALID,87.9457,VALID,135.257,VALID,27.0921,VALID,52,VALID,0.863672,
2010-10-20, 00:19:04,VALID,1005.42,VALID,0,VALID,87.8618,VALID,137.067,VALID,27.09,VALID,81,VALID,1.09922,
2010-10-20, 00:20:04,VALID,1005.45,VALID,0,VALID,88.2127,VALID,138.777,VALID,27.1116,VALID,68,VALID,0.399219,
2010-10-20, 00:21:04,VALID,1005.45,VALID,0,VALID,87.4499,VALID,140.486,VALID,27.1526,VALID,115,VALID,0.678906,
2010-10-20, 00:22:04,VALID,1005.49,VALID,0,VALID,87.549,VALID,142.297,VALID,27.1311,VALID,148,VALID,0.773047,
2010-10-20, 00:23:04,VALID,1005.5,VALID,0,VALID,87.816,VALID,144.006,VALID,27.17,VALID,151,VALID,0.640625,
2010-10-20, 00:24:04,VALID,1005.55,VALID,0,VALID,87.4575,VALID,145.816,VALID,27.2111,VALID,155,VALID,0.853906,
2010-10-20, 00:25:04,VALID,1005.56,VALID,0,VALID,87.2286,VALID,147.526,VALID,27.2111,VALID,121,VALID,1,
2010-10-20, 00:26:04,VALID,1005.59,VALID,0,VALID,87.1218,VALID,148.934,VALID,27.209,VALID,102,VALID,0.546875,
2010-10-20, 00:27:04,VALID,1005.62,VALID,0,VALID,86.6336,VALID,150.442,VALID,27.209,VALID,1,VALID,0.901953,
2010-10-20, 00:28:04,VALID,1005.69,VALID,0,VALID,87.5872,VALID,152.152,VALID,27.2675,VALID,68,VALID,0.608203,
2010-10-20, 00:29:04,VALID,1005.73,VALID,0,VALID,86.2979,VALID,153.66,VALID,27.3064,VALID,101,VALID,0.00820312,
2010-10-20, 00:30:04,VALID,1005.79,VALID,0,VALID,86.7785,VALID,154.967,VALID,27.3649,VALID,133,VALID,0.403906,
2010-10-20, 00:31:04,VALID,1005.82,VALID,0,VALID,87.5185,VALID,156.476,VALID,27.4233,VALID,174,VALID,0.510938,
2010-10-20, 00:32:04,VALID,1005.82,VALID,0,VALID,86.542,VALID,157.783,VALID,27.4428,VALID,149,VALID,0.591016,
2010-10-20, 00:33:04,VALID,1005.84,VALID,0,VALID,85.2527,VALID,158.99,VALID,27.4428,VALID,131,VALID,0.202344,
2010-10-20, 00:34:04,VALID,1005.87,VALID,0,VALID,85.3901,VALID,160.096,VALID,27.4818,VALID,131,VALID,0.153516,
2010-10-20, 00:35:04,VALID,1005.85,VALID,0,VALID,86.1529,VALID,161.001,VALID,27.5424,VALID,131,VALID,0.355469,
2010-10-20, 00:36:04,VALID,1005.84,VALID,0,VALID,85.8478,VALID,161.605,VALID,27.5792,VALID,71,VALID,0.476563,
2010-10-20, 00:37:04,VALID,1005.82,VALID,0,VALID,86.1758,VALID,162.51,VALID,27.6182,VALID,40,VALID,0.527344,
2010-10-20, 00:38:04,VALID,1005.84,VALID,0,VALID,85.6037,VALID,163.214,VALID,27.5987,VALID,25,VALID,0.49375,
2010-10-20, 00:39:04,VALID,1005.82,VALID,0,VALID,85.5732,VALID,164.018,VALID,27.5987,VALID,26,VALID,0.627734,
2010-10-20, 00:40:04,VALID,1005.79,VALID,0,VALID,86.4276,VALID,164.622,VALID,27.6398,VALID,39,VALID,0.586719,
2010-10-20, 00:41:04,VALID,1005.79,VALID,0,VALID,86.0309,VALID,165.024,VALID,27.6203,VALID,37,VALID,0.548437,
2010-10-20, 00:42:04,VALID,1005.77,VALID,0,VALID,86.809,VALID,165.325,VALID,27.6008,VALID,60,VALID,0.455859,
2010-10-20, 00:43:04,VALID,1005.77,VALID,0,VALID,86.2521,VALID,165.728,VALID,27.5813,VALID,78,VALID,0.663281,
2010-10-20, 00:44:04,VALID,1005.76,VALID,0,VALID,86.275,VALID,166.029,VALID,27.5813,VALID,101,VALID,0.830469,
2010-10-20, 00:45:04,VALID,1005.74,VALID,0,VALID,86.6107,VALID,166.13,VALID,27.5208,VALID,91,VALID,0.836328,
2010-10-20, 00:46:04,VALID,1005.69,VALID,0,VALID,87.4346,VALID,166.13,VALID,27.5424,VALID,79,VALID,0.421875,
2010-10-20, 00:47:04,VALID,1005.73,VALID,0,VALID,87.3354,VALID,165.929,VALID,27.5208,VALID,36,VALID,1.11836,
2010-10-20, 00:48:04,VALID,1005.7,VALID,0,VALID,86.8548,VALID,165.527,VALID,27.5424,VALID,72,VALID,0.606641,
2010-10-20, 00:49:04,VALID,1005.72,VALID,0,VALID,87.3354,VALID,165.024,VALID,27.5403,VALID,64,VALID,0.862109,
2010-10-20, 00:50:04,VALID,1005.73,VALID,0,VALID,87.0226,VALID,164.42,VALID,27.5424,VALID,55,VALID,1.44922,
2010-10-20, 00:51:04,VALID,1005.74,VALID,0,VALID,86.4428,VALID,163.918,VALID,27.4818,VALID,69,VALID,1.13437,
2010-10-20, 00:52:04,VALID,1005.74,VALID,0,VALID,87.6787,VALID,163.113,VALID,27.4818,VALID,109,VALID,1.14531,
2010-10-20, 00:53:04,VALID,1005.75,VALID,0,VALID,87.694,VALID,162.107,VALID,27.4839,VALID,70,VALID,1.12422,
2010-10-20, 00:54:04,VALID,1005.74,VALID,0,VALID,87.2896,VALID,161.102,VALID,27.4644,VALID,68,VALID,0.841406,
2010-10-20, 00:55:04,VALID,1005.75,VALID,0,VALID,86.7938,VALID,159.996,VALID,27.4644,VALID,54,VALID,0.907812,
2010-10-20, 00:56:04,VALID,1005.76,VALID,0,VALID,87.4651,VALID,158.889,VALID,27.4039,VALID,84,VALID,1.19531,
2010-10-20, 00:57:04,VALID,1005.75,VALID,0,VALID,87.0837,VALID,158.085,VALID,27.3844,VALID,79,VALID,1.44219,
2010-10-20, 00:58:04,VALID,1005.77,VALID,0,VALID,87.9076,VALID,157.079,VALID,27.3649,VALID,15,VALID,0.718359,
2010-10-20, 00:59:04,VALID,1005.77,VALID,0,VALID,87.816,VALID,156.275,VALID,27.3454,VALID,57,VALID,1.16289,
2010-10-20, 01:00:04,VALID,1005.8,VALID,0,VALID,88.2433,VALID,155.671,VALID,27.3064,VALID,85,VALID,0.791797,
2010-10-20, 01:01:04,VALID,1005.8,VALID,0,VALID,87.6253,VALID,155.269,VALID,27.3044,VALID,14,VALID,0.56875,
2010-10-20, 01:02:04,VALID,1005.79,VALID,0,VALID,87.9,VALID,154.967,VALID,27.3238,VALID,13,VALID,0.55625,
2010-10-20, 01:03:04,VALID,1005.78,VALID,0,VALID,87.4499,VALID,155.068,VALID,27.3454,VALID,52,VALID,0.657812,
2010-10-20, 01:04:04,VALID,1005.78,VALID,0,VALID,87.221,VALID,155.47,VALID,27.3433,VALID,128,VALID,0.829297,
2010-10-20, 01:05:04,VALID,1005.77,VALID,0,VALID,87.8694,VALID,156.174,VALID,27.3844,VALID,96,VALID,0.460547,
2010-10-20, 01:06:04,VALID,1005.76,VALID,0,VALID,86.9082,VALID,157.28,VALID,27.4039,VALID,119,VALID,1.32109,
2010-10-20, 01:07:04,VALID,1005.76,VALID,0,VALID,86.0233,VALID,158.688,VALID,27.4039,VALID,94,VALID,1.09883,
2010-10-20, 01:08:04,VALID,1005.73,VALID,0,VALID,86.7099,VALID,160.8,VALID,27.4428,VALID,113,VALID,1.10312,
2010-10-20, 01:09:04,VALID,1005.76,VALID,0,VALID,86.1758,VALID,163.113,VALID,27.4039,VALID,85,VALID,1.05625,
2010-10-20, 01:10:04,VALID,1005.76,VALID,0,VALID,85.3138,VALID,165.828,VALID,27.3844,VALID,108,VALID,2.30781,
2010-10-20, 01:11:04,VALID,1005.77,VALID,0,VALID,85.9165,VALID,169.247,VALID,27.367,VALID,88,VALID,0.755859,
2010-10-20, 01:12:04,VALID,1005.76,VALID,0,VALID,86.42,VALID,172.868,VALID,27.3823,VALID,88,VALID,0.944531,
2010-10-20, 01:13:04,VALID,1005.78,VALID,0,VALID,86.1758,VALID,176.689,VALID,27.4018,VALID,76,VALID,0.842578,
2010-10-20, 01:14:04,VALID,1005.75,VALID,0,VALID,85.9775,VALID,181.114,VALID,27.4623,VALID,46,VALID,0.579297,
2010-10-20, 01:15:04,VALID,1005.8,VALID,0,VALID,86.4123,VALID,185.338,VALID,27.4408,VALID,106,VALID,0.761328,
2010-10-20, 01:16:04,VALID,1005.79,VALID,0,VALID,86.275,VALID,189.762,VALID,27.4818,VALID,123,VALID,1.43086,
2010-10-20, 01:17:04,VALID,1005.75,VALID,0,VALID,86.069,VALID,193.986,VALID,27.4623,VALID,73,VALID,1.54883,
2010-10-20, 01:18:04,VALID,1005.73,VALID,0,VALID,86.2292,VALID,198.612,VALID,27.4408,VALID,132,VALID,1.38711,
2010-10-20, 01:19:04,VALID,1005.75,VALID,0,VALID,87.1981,VALID,203.037,VALID,27.4408,VALID,94,VALID,1.23438,
2010-10-20, 01:20:04,VALID,1005.72,VALID,0,VALID,87.3507,VALID,207.26,VALID,27.4408,VALID,77,VALID,0.877344,
2010-10-20, 01:21:04,VALID,1005.71,VALID,0,VALID,86.7099,VALID,211.283,VALID,27.4992,VALID,87,VALID,0.741016,
2010-10-20, 01:22:04,VALID,1005.69,VALID,0,VALID,85.9317,VALID,215.205,VALID,27.4797,VALID,129,VALID,0.778516,
2010-10-20, 01:23:04,VALID,1005.67,VALID,0,VALID,86.0538,VALID,219.227,VALID,27.5013,VALID,133,VALID,1.48203,
2010-10-20, 01:24:04,VALID,1005.66,VALID,0,VALID,87.6406,VALID,222.646,VALID,27.4602,VALID,75,VALID,0.726563,
2010-10-20, 01:25:04,VALID,1005.65,VALID,0,VALID,86.9692,VALID,226.066,VALID,27.4797,VALID,37,VALID,0.783984,
2010-10-20, 01:26:04,VALID,1005.68,VALID,0,VALID,86.687,VALID,229.485,VALID,27.4992,VALID,81,VALID,1.04531,
2010-10-20, 01:27:04,VALID,1005.66,VALID,0,VALID,87.2668,VALID,232.803,VALID,27.5403,VALID,78,VALID,0.58125,
2010-10-20, 01:28:04,VALID,1005.65,VALID,0,VALID,86.8777,VALID,236.725,VALID,27.5772,VALID,304,VALID,0.665234,
2010-10-20, 01:29:04,VALID,1005.66,VALID,0,VALID,86.5191,VALID,240.345,VALID,27.6572,VALID,62,VALID,1.00937,
2010-10-20, 01:30:04,VALID,1005.64,VALID,0,VALID,86.4886,VALID,243.765,VALID,27.6551,VALID,68,VALID,1.09375,
2010-10-20, 01:31:04,VALID,1005.64,VALID,0,VALID,86.0385,VALID,247.485,VALID,27.6356,VALID,44,VALID,0.866406,
2010-10-20, 01:32:04,VALID,1005.64,VALID,0,VALID,86.4581,VALID,251.508,VALID,27.6377,VALID,114,VALID,1.33125,
2010-10-20, 01:33:04,VALID,1005.62,VALID,0,VALID,86.9158,VALID,255.43,VALID,27.6572,VALID,71,VALID,0.639063,
2010-10-20, 01:34:04,VALID,1005.63,VALID,0,VALID,86.5878,VALID,258.95,VALID,27.6551,VALID,71,VALID,0.939062,
2010-10-20, 01:35:04,VALID,1005.64,VALID,0,VALID,86.8548,VALID,262.771,VALID,27.6767,VALID,33,VALID,0.858984,
2010-10-20, 01:36:04,VALID,1005.62,VALID,0,VALID,86.1758,VALID,267.095,VALID,27.7157,VALID,47,VALID,0.697266,
2010-10-20, 01:37:04,VALID,1005.64,VALID,0,VALID,85.1078,VALID,270.917,VALID,27.7157,VALID,70,VALID,1.60469,
2010-10-20, 01:38:04,VALID,1005.68,VALID,0,VALID,86.1835,VALID,275.14,VALID,27.7741,VALID,83,VALID,0.986328,
2010-10-20, 01:39:04,VALID,1005.67,VALID,0,VALID,86.9158,VALID,277.956,VALID,27.8305,VALID,76,VALID,0.285547,
2010-10-20, 01:40:04,VALID,1005.66,VALID,0,VALID,86.4657,VALID,282.28,VALID,27.93,VALID,360,VALID,0.532422,
2010-10-20, 01:41:04,VALID,1005.67,VALID,0,VALID,85.8249,VALID,285.8,VALID,28.008,VALID,117,VALID,1.16719,
2010-10-20, 01:42:04,VALID,1005.66,VALID,0,VALID,85.0086,VALID,290.828,VALID,27.9495,VALID,113,VALID,1.09375,
2010-10-20, 01:43:04,VALID,1005.66,VALID,0,VALID,83.5439,VALID,293.744,VALID,27.93,VALID,94,VALID,1.52578,
2010-10-20, 01:44:04,VALID,1005.7,VALID,0,VALID,83.9635,VALID,299.678,VALID,27.9711,VALID,80,VALID,1.50039,
2010-10-20, 01:45:04,VALID,1005.7,VALID,0,VALID,82.4758,VALID,305.711,VALID,27.9885,VALID,109,VALID,0.846094,
2010-10-20, 01:46:04,VALID,1005.69,VALID,0,VALID,82.0868,VALID,311.142,VALID,27.93,VALID,136,VALID,1.67188,
2010-10-20, 01:47:04,VALID,1005.75,VALID,0,VALID,83.8567,VALID,315.064,VALID,27.93,VALID,72,VALID,1.05234,
2010-10-20, 01:48:04,VALID,1005.77,VALID,0,VALID,83.5668,VALID,318.483,VALID,27.9279,VALID,109,VALID,1.50937,
2010-10-20, 01:49:04,VALID,1005.8,VALID,0,VALID,83.8643,VALID,322.304,VALID,28.0296,VALID,106,VALID,1.26523,
2010-10-20, 01:50:04,VALID,1005.81,VALID,0,VALID,83.0327,VALID,319.589,VALID,28.047,VALID,87,VALID,1.45508,
2010-10-20, 01:51:04,VALID,1005.85,VALID,0,VALID,83.0404,VALID,320.293,VALID,28.1249,VALID,103,VALID,1.14883,
2010-10-20, 01:52:04,VALID,1005.82,VALID,0,VALID,80.7822,VALID,317.578,VALID,28.0665,VALID,112,VALID,1.99883,
2010-10-20, 01:53:04,VALID,1005.8,VALID,0,VALID,81.5527,VALID,320.092,VALID,28.0665,VALID,133,VALID,1.19141,
2010-10-20, 01:54:04,VALID,1005.82,VALID,0,VALID,82.5063,VALID,323.31,VALID,28.0859,VALID,101,VALID,0.687891,
2010-10-20, 01:55:04,VALID,1005.85,VALID,0,VALID,81.4078,VALID,325.623,VALID,28.166,VALID,102,VALID,2.52852,
2010-10-20, 01:56:04,VALID,1005.86,VALID,0,VALID,81.5375,VALID,329.143,VALID,28.1249,VALID,127,VALID,1.90586,
2010-10-20, 01:57:04,VALID,1005.84,VALID,0,VALID,82.7199,VALID,331.757,VALID,28.1834,VALID,39,VALID,1.22305,
2010-10-20, 01:58:04,VALID,1005.84,VALID,0,VALID,82.4682,VALID,337.59,VALID,28.2224,VALID,99,VALID,1.23828,
2010-10-20, 01:59:04,VALID,1005.82,VALID,0,VALID,82.5597,VALID,341.914,VALID,28.3025,VALID,110,VALID,0.976172,
2010-10-20, 02:00:04,VALID,1005.82,VALID,0,VALID,83.2235,VALID,347.445,VALID,28.4368,VALID,93,VALID,0.392578,
2010-10-20, 02:01:04,VALID,1005.83,VALID,0,VALID,81.1637,VALID,354.484,VALID,28.6122,VALID,2,VALID,0.723047,
2010-10-20, 02:02:04,VALID,1005.82,VALID,0,VALID,81.034,VALID,358.306,VALID,28.7097,VALID,8,VALID,0.54375,
2010-10-20, 02:03:04,VALID,1005.84,VALID,0,VALID,79.882,VALID,365.345,VALID,28.7877,VALID,126,VALID,1.19531,
2010-10-20, 02:04:04,VALID,1005.83,VALID,0,VALID,80.0804,VALID,371.379,VALID,28.7898,VALID,119,VALID,1.10859,
2010-10-20, 02:05:04,VALID,1005.82,VALID,0,VALID,79.9736,VALID,374.094,VALID,28.8267,VALID,100,VALID,0.986719,
2010-10-20, 02:06:04,VALID,1005.79,VALID,0,VALID,81.5909,VALID,398.33,VALID,28.9241,VALID,84,VALID,0.590234,
2010-10-20, 02:07:04,VALID,1005.77,VALID,0,VALID,78.7758,VALID,411.001,VALID,28.9999,VALID,53,VALID,1.1207,
2010-10-20, 02:08:04,VALID,1005.82,VALID,0,VALID,79.3938,VALID,427.795,VALID,29.0021,VALID,67,VALID,1.59492,
2010-10-20, 02:09:04,VALID,1005.79,VALID,0,VALID,77.807,VALID,439.762,VALID,28.9436,VALID,108,VALID,1.52695,
2010-10-20, 02:10:04,VALID,1005.77,VALID,0,VALID,78.7987,VALID,457.863,VALID,28.844,VALID,74,VALID,1.38047,
2010-10-20, 02:11:04,VALID,1005.78,VALID,0,VALID,79.1954,VALID,476.166,VALID,28.9436,VALID,67,VALID,0.964453,
2010-10-20, 02:12:04,VALID,1005.78,VALID,0,VALID,78.2113,VALID,406.073,VALID,29.0216,VALID,84,VALID,1.11211,
2010-10-20, 02:13:04,VALID,1005.79,VALID,0,VALID,77.0364,VALID,499.194,VALID,29.0801,VALID,94,VALID,2.08242,
2010-10-20, 02:14:04,VALID,1005.83,VALID,0,VALID,77.1432,VALID,503.82,VALID,28.9631,VALID,26,VALID,2.13008,
2010-10-20, 02:15:04,VALID,1005.78,VALID,0,VALID,78.2265,VALID,496.68,VALID,29.0021,VALID,30,VALID,1.08555,
2010-10-20, 02:16:04,VALID,1005.79,VALID,0,VALID,78.8063,VALID,488.736,VALID,29.0411,VALID,55,VALID,1.59336,
2010-10-20, 02:17:04,VALID,1005.77,VALID,0,VALID,77.6696,VALID,427.493,VALID,29.0606,VALID,61,VALID,2.09336,
2010-10-20, 02:18:04,VALID,1005.77,VALID,0,VALID,78.2037,VALID,503.619,VALID,29.0606,VALID,23,VALID,1.06641,
2010-10-20, 02:19:04,VALID,1005.75,VALID,0,VALID,77.5705,VALID,487.63,VALID,29.0606,VALID,146,VALID,2.00703,
2010-10-20, 02:20:04,VALID,1005.72,VALID,0,VALID,77.7917,VALID,474.657,VALID,29.0216,VALID,108,VALID,1.51484,
2010-10-20, 02:21:04,VALID,1005.69,VALID,0,VALID,77.8756,VALID,359.814,VALID,28.9826,VALID,57,VALID,1.46602,
2010-10-20, 02:22:04,VALID,1005.67,VALID,0,VALID,78.4936,VALID,438.555,VALID,28.9631,VALID,99,VALID,1.71563,
2010-10-20, 02:23:04,VALID,1005.65,VALID,0,VALID,78.4096,VALID,307.622,VALID,28.9241,VALID,127,VALID,2.57266,
2010-10-20, 02:24:04,VALID,1005.63,VALID,0,VALID,78.9971,VALID,483.708,VALID,28.9046,VALID,34,VALID,0.698047,
2010-10-20, 02:25:04,VALID,1005.58,VALID,0,VALID,79.0733,VALID,455.952,VALID,28.9826,VALID,68,VALID,0.625781,
2010-10-20, 02:26:04,VALID,1005.54,VALID,0,VALID,78.4936,VALID,347.948,VALID,29.0411,VALID,45,VALID,0.992969,
2010-10-20, 02:27:04,VALID,1005.56,VALID,0,VALID,78.2418,VALID,369.167,VALID,29.1386,VALID,120,VALID,1.59336,
2010-10-20, 02:28:04,VALID,1005.56,VALID,0,VALID,77.0593,VALID,532.782,VALID,29.1191,VALID,76,VALID,2.19492,
2010-10-20, 02:29:04,VALID,1005.55,VALID,0,VALID,77.3416,VALID,372.485,VALID,29.1581,VALID,73,VALID,0.9375,
2010-10-20, 02:30:04,VALID,1005.53,VALID,0,VALID,77.6544,VALID,295.052,VALID,29.2166,VALID,29,VALID,0.994922,
2010-10-20, 02:31:04,VALID,1005.5,VALID,0,VALID,77.3416,VALID,274.939,VALID,29.2383,VALID,40,VALID,2.21172,
2010-10-20, 02:32:04,VALID,1005.47,VALID,0,VALID,77.7993,VALID,287.61,VALID,29.2945,VALID,352,VALID,0.437109,
2010-10-20, 02:33:04,VALID,1005.52,VALID,0,VALID,77.2043,VALID,412.61,VALID,29.3725,VALID,112,VALID,0.952734,
2010-10-20, 02:34:04,VALID,1005.51,VALID,0,VALID,76.4948,VALID,520.614,VALID,29.2143,VALID,48,VALID,0.633203,
2010-10-20, 02:35:04,VALID,1005.51,VALID,0,VALID,76.8686,VALID,540.828,VALID,29.3725,VALID,81,VALID,0.973437,
2010-10-20, 02:36:04,VALID,1005.52,VALID,0,VALID,74.496,VALID,583.164,VALID,29.4138,VALID,115,VALID,2.13477,
2010-10-20, 02:37:04,VALID,1005.5,VALID,0,VALID,74.0917,VALID,612.227,VALID,29.353,VALID,113,VALID,2.63398,
2010-10-20, 02:38:04,VALID,1005.46,VALID,0,VALID,75.1521,VALID,614.842,VALID,29.4115,VALID,145,VALID,1.15078,
2010-10-20, 02:39:04,VALID,1005.47,VALID,0,VALID,76.1896,VALID,639.58,VALID,29.6065,VALID,131,VALID,1.51875,
2010-10-20, 02:40:04,VALID,1005.48,VALID,0,VALID,73.1228,VALID,586.785,VALID,29.782,VALID,94,VALID,2.30938,
2010-10-20, 02:41:04,VALID,1005.47,VALID,0,VALID,71.9327,VALID,363.937,VALID,29.8428,VALID,135,VALID,2.54766,
2010-10-20, 02:42:04,VALID,1005.46,VALID,0,VALID,73.0999,VALID,573.41,VALID,29.704,VALID,93,VALID,1.2418,
2010-10-20, 02:43:04,VALID,1005.47,VALID,0,VALID,74.2214,VALID,443.684,VALID,29.7625,VALID,144,VALID,1.47031,
2010-10-20, 02:44:04,VALID,1005.47,VALID,0,VALID,75.0224,VALID,310.237,VALID,29.977,VALID,24,VALID,0.71875,
2010-10-20, 02:45:04,VALID,1005.51,VALID,0,VALID,72.5507,VALID,296.661,VALID,30.0183,VALID,124,VALID,1.57656,
2010-10-20, 02:46:04,VALID,1005.48,VALID,0,VALID,73.4203,VALID,291.029,VALID,29.8818,VALID,101,VALID,1.85586,
2010-10-20, 02:47:04,VALID,1005.49,VALID,0,VALID,74.168,VALID,319.287,VALID,29.8623,VALID,58,VALID,1.96484,
2010-10-20, 02:48:04,VALID,1005.48,VALID,0,VALID,73.5424,VALID,374.295,VALID,29.7648,VALID,90,VALID,1.39219,
2010-10-20, 02:49:04,VALID,1005.49,VALID,0,VALID,73.7636,VALID,780.469,VALID,29.6868,VALID,105,VALID,1.15664,
2010-10-20, 02:50:04,VALID,1005.48,VALID,0,VALID,73.0923,VALID,650.743,VALID,29.7235,VALID,116,VALID,1.73789,
2010-10-20, 02:51:04,VALID,1005.49,VALID,0,VALID,75.5183,VALID,769.508,VALID,29.8428,VALID,83,VALID,1.00469,
2010-10-20, 02:52:04,VALID,1005.48,VALID,0,VALID,73.7789,VALID,643.804,VALID,30.0745,VALID,65,VALID,1.18086,
2010-10-20, 02:53:04,VALID,1005.51,VALID,0,VALID,70.7884,VALID,767.396,VALID,30.1743,VALID,105,VALID,3.26602,
2010-10-20, 02:54:04,VALID,1005.45,VALID,0,VALID,72.0471,VALID,753.216,VALID,29.9988,VALID,91,VALID,1.81094,
2010-10-20, 02:55:04,VALID,1005.45,VALID,0,VALID,71.2156,VALID,730.087,VALID,30.016,VALID,100,VALID,2.18047,
2010-10-20, 02:56:04,VALID,1005.4,VALID,0,VALID,72.1234,VALID,707.561,VALID,30.0745,VALID,102,VALID,1.89414,
2010-10-20, 02:57:04,VALID,1005.39,VALID,0,VALID,71.5284,VALID,493.663,VALID,30.3109,VALID,352,VALID,0.983594,
2010-10-20, 02:58:04,VALID,1005.4,VALID,0,VALID,71.6352,VALID,546.962,VALID,30.4474,VALID,27,VALID,0.762891,
2010-10-20, 02:59:04,VALID,1005.38,VALID,0,VALID,69.6059,VALID,686.342,VALID,30.4841,VALID,91,VALID,1.46719,
2010-10-20, 03:00:04,VALID,1005.32,VALID,0,VALID,70.201,VALID,762.971,VALID,30.4646,VALID,60,VALID,0.648047,
2010-10-20, 03:01:04,VALID,1005.34,VALID,0,VALID,68.8964,VALID,764.882,VALID,30.6229,VALID,93,VALID,2.37617,
2010-10-20, 03:02:04,VALID,1005.31,VALID,0,VALID,68.5226,VALID,793.14,VALID,30.5644,VALID,76,VALID,1.53125,
2010-10-20, 03:03:04,VALID,1005.26,VALID,0,VALID,70.0255,VALID,783.486,VALID,30.6401,VALID,131,VALID,0.935938,
2010-10-20, 03:04:04,VALID,1005.28,VALID,0,VALID,67.3172,VALID,800.481,VALID,30.6815,VALID,120,VALID,3.4668,
2010-10-20, 03:05:04,VALID,1005.24,VALID,0,VALID,68.5531,VALID,793.039,VALID,30.6229,VALID,136,VALID,1.87422,
2010-10-20, 03:06:04,VALID,1005.28,VALID,0,VALID,71.7115,VALID,767.698,VALID,30.5816,VALID,33,VALID,1.49805,
2010-10-20, 03:07:04,VALID,1005.27,VALID,0,VALID,69.3694,VALID,694.789,VALID,30.5816,VALID,30,VALID,1.08633,
2010-10-20, 03:08:04,VALID,1005.24,VALID,0,VALID,69.1558,VALID,434.532,VALID,30.6206,VALID,115,VALID,1.78008,
2010-10-20, 03:09:04,VALID,1005.25,VALID,0,VALID,72.0395,VALID,535.799,VALID,30.4451,VALID,53,VALID,1.06914,
2010-10-20, 03:10:04,VALID,1005.27,VALID,0,VALID,72.1082,VALID,821.8,VALID,30.5816,VALID,50,VALID,2.0957,
2010-10-20, 03:11:04,VALID,1005.29,VALID,0,VALID,68.6828,VALID,793.944,VALID,30.6424,VALID,117,VALID,1.77031,
2010-10-20, 03:12:04,VALID,1005.23,VALID,0,VALID,69.7509,VALID,791.632,VALID,30.7205,VALID,85,VALID,1.34297,
2010-10-20, 03:13:04,VALID,1005.2,VALID,0,VALID,67.0807,VALID,771.921,VALID,30.857,VALID,141,VALID,2.53398,
2010-10-20, 03:14:04,VALID,1005.25,VALID,0,VALID,66.3789,VALID,419.549,VALID,30.7205,VALID,119,VALID,1.86484,
2010-10-20, 03:15:04,VALID,1005.24,VALID,0,VALID,67.8589,VALID,459.874,VALID,30.7595,VALID,112,VALID,1.35117,
2010-10-20, 03:16:04,VALID,1005.2,VALID,0,VALID,66.1653,VALID,702.734,VALID,30.9155,VALID,90,VALID,1.33477,
2010-10-20, 03:17:04,VALID,1005.2,VALID,0,VALID,66.8214,VALID,725.763,VALID,30.8547,VALID,56,VALID,2.29961,
2010-10-20, 03:18:04,VALID,1005.17,VALID,0,VALID,65.0743,VALID,771.217,VALID,30.7985,VALID,136,VALID,2.6375,
2010-10-20, 03:19:04,VALID,1005.22,VALID,0,VALID,64.1131,VALID,733.003,VALID,30.7767,VALID,106,VALID,2.67227,
2010-10-20, 03:20:04,VALID,1005.18,VALID,0,VALID,65.8983,VALID,327.232,VALID,30.6791,VALID,95,VALID,2.36914,
2010-10-20, 03:21:04,VALID,1005.2,VALID,0,VALID,66.0508,VALID,296.158,VALID,30.5036,VALID,112,VALID,2.48867,
2010-10-20, 03:22:04,VALID,1005.16,VALID,0,VALID,66.3255,VALID,759.753,VALID,30.3694,VALID,102,VALID,1.58281,
2010-10-20, 03:23:04,VALID,1005.13,VALID,0,VALID,67.1647,VALID,801.286,VALID,30.3694,VALID,106,VALID,2.96992,
2010-10-20, 03:24:04,VALID,1005.08,VALID,0,VALID,65.7304,VALID,467.014,VALID,30.3889,VALID,120,VALID,2.7918,
2010-10-20, 03:25:04,VALID,1005.1,VALID,0,VALID,67.1647,VALID,313.153,VALID,30.289,VALID,87,VALID,1.58242,
2010-10-20, 03:26:04,VALID,1005.12,VALID,0,VALID,67.1265,VALID,276.146,VALID,30.4061,VALID,40,VALID,1.1082,
2010-10-20, 03:27:04,VALID,1005.08,VALID,0,VALID,67.3096,VALID,250.301,VALID,30.3866,VALID,107,VALID,1.80898,
2010-10-20, 03:28:04,VALID,1005.08,VALID,0,VALID,67.9428,VALID,242.156,VALID,30.25,VALID,78,VALID,0.944922,
2010-10-20, 03:29:04,VALID,1005.03,VALID,0,VALID,68.6599,VALID,245.072,VALID,30.1938,VALID,102,VALID,1.98398,
2010-10-20, 03:30:04,VALID,1005.04,VALID,0,VALID,68.4234,VALID,250.603,VALID,30.1353,VALID,100,VALID,2.125,
2010-10-20, 03:31:04,VALID,1005.03,VALID,0,VALID,70.1704,VALID,243.362,VALID,30.016,VALID,71,VALID,2.44297,
2010-10-20, 03:32:04,VALID,1005.01,VALID,0,VALID,69.728,VALID,241.251,VALID,29.9965,VALID,49,VALID,2.21172,
2010-10-20, 03:33:04,VALID,1005.01,VALID,0,VALID,69.461,VALID,251.709,VALID,29.9965,VALID,157,VALID,2.37969,
2010-10-20, 03:34:04,VALID,1005.06,VALID,0,VALID,71.0859,VALID,278.76,VALID,29.9965,VALID,104,VALID,2.26875,